Back to catalog

SL-14 DEB

AlivePO
NORAD 45290·DEBRIS·🇷🇺 Russia

Launched Aug 15, 1991 from Plesetsk Cosmodrome

Loading…

Next Passes (next 24 hours)

TLE

FreshSource: Space-Track

Epoch: Sep 14, 2026, 08:52 UTC

1 45290U 91056AC  26257.36947277  .00000142  00000-0  21764-3 0  9998
2 45290  82.6356  36.2736 0098594  40.8015 320.0451 13.43205322320399

Track SL-14 DEB in real time with AllMySat

Download on the App Store